Temperature
28 29 29 29 29 29 29 29 29 27 26 26 25 24 22 21 21 20 19 19 17 17 16 16 16 16 16 17 17 17 17 17 17 17 16 16 16 16 16 16 16 16 16 16
29 29 29 29 29 29 29 28 28 27 26 26 25 23 22 21 20 19 19 18 18 17 16 16 16 16 16 16 17 17 17 17 17 17 16 16 16 16 15 15 15 15 16 16
29 29 29 29 29 29 29 29 28 27 26 26 26 24 23 22 20 19 18 18 17 17 17 16 16 16 16 17 17 17 17 17 17 17 16 16 15 15 15 15 15 15 16 16
29 29 29 29 29 29 28 29 28 27 27 27 27 26 24 23 22 21 19 18 18 17 17 17 16 16 16 16 16 17 17 17 16 16 15 15 15 15 15 15 15 15 15 15
29 29 28 28 28 28 28 28 28 28 28 28 27 27 25 24 23 22 21 19 18 17 17 16 16 16 16 16 16 16 16 16 16 16 16 15 15 15 15 14 15 15 15 15
29 29 28 28 28 28 28 28 27 28 28 27 27 26 25 25 24 23 21 19 18 18 17 17 16 16 16 16 16 15 15 15 15 15 15 15 15 15 14 14 14 14 14 14
28 28 29 28 28 28 28 27 27 26 26 26 26 26 24 23 23 22 21 20 19 18 18 17 17 16 16 16 15 15 15 15 14 14 14 14 14 14 14 14 14 13 13 13
27 27 28 28 27 27 27 27 26 25 26 26 26 25 23 22 21 21 20 20 19 19 18 17 17 17 16 16 15 15 14 14 14 14 14 13 13 13 13 13 13 13 13 13
27 27 27 27 27 27 27 27 27 27 26 26 26 24 22 22 22 21 20 20 19 19 18 18 17 17 16 16 15 15 14 13 13 13 13 13 13 13 13 12 12 12 12 12
28 26 27 27 28 27 27 27 27 26 25 25 25 25 23 22 22 22 21 21 20 19 18 18 17 17 16 15 15 14 14 13 13 13 12 13 12 12 12 12 12 12 12 11
28 27 27 27 26 26 26 26 26 26 25 25 24 24 23 22 22 22 21 20 19 19 18 18 17 16 15 15 14 14 13 13 13 12 12 12 12 12 11 11 11 11 11 11
27 27 26 26 25 26 26 25 25 25 24 25 25 24 22 22 21 21 20 20 19 18 17 17 16 15 15 14 14 13 13 12 12 12 12 11 11 11 11 11 11 11 11 11
26 26 26 26 25 26 25 25 25 25 25 24 24 24 22 22 21 20 20 19 18 17 17 16 15 14 14 13 13 12 12 12 11 11 11 11 11 10 10 10 10 10 10 10
25 26 26 25 25 26 25 24 24 25 25 24 24 23 24 23 22 20 19 18 18 17 16 15 14 14 13 12 12 11 11 11 10 10 10 10 10 10 10 10 10 9 10 10
26 26 26 26 25 25 25 24 24 24 24 23 23 23 23 22 21 19 18 18 17 16 15 15 14 13 12 12 11 11 10 10 9 9 9 9 9 9 9 9 9 9 9 9
26 26 25 25 25 25 24 24 24 24 23 23 23 23 23 21 20 19 18 17 16 15 15 14 13 12 11 11 10 10 9 9 8 8 8 8 8 8 8 8 8 8 8 8
26 25 25 26 25 24 24 24 24 23 23 23 22 22 22 21 19 18 17 16 15 14 13 13 12 11 10 10 9 9 8 8 8 8 7 7 7 7 7 7 7 7 7 7
25 25 25 25 24 23 24 24 24 23 23 23 22 22 21 20 18 17 16 15 14 13 12 12 11 10 10 9 9 8 8 8 7 7 7 7 7 6 6 6 6 6 6 7
24 24 25 25 25 25 24 23 23 22 22 23 21 21 20 19 18 19 16 14 13 12 11 11 10 10 9 9 8 7 7 7 7 7 7 6 6 6 6 6 6 6 6 6
23 24 25 25 23 23 24 23 22 22 22 22 20 20 19 18 18 19 15 13 12 11 11 10 9 9 8 8 7 7 7 6 6 6 6 6 6 5 5 5 5 5 5 6
25 24 24 24 24 25 24 22 22 22 22 20 19 19 18 17 17 15 14 13 12 11 10 9 9 8 8 7 6 6 6 6 6 6 5 5 5 5 5 5 5 5 5 5
25 25 24 24 23 24 23 23 22 22 20 19 18 18 17 16 15 14 13 12 11 10 10 9 8 8 7 7 6 6 6 6 5 5 5 5 5 5 5 5 5 5 5 5
25 25 25 24 24 23 23 22 21 19 19 18 18 17 16 15 14 13 12 11 11 10 9 8 8 7 7 6 6 6 6 5 5 5 5 5 5 5 5 5 5 5 5 5
25 22 23 23 24 23 22 21 20 19 18 17 16 16 15 14 13 12 11 11 10 9 9 8 7 7 6 6 6 6 5 5 5 5 5 5 5 5 5 5 5 5 5 5
25 23 23 23 24 23 22 21 20 18 17 17 16 15 14 13 13 12 11 10 9 9 8 7 7 6 6 6 6 5 5 5 5 5 5 5 5 5 5 5 5 5 5 5
25 24 23 24 24 23 22 20 19 18 17 16 15 15 14 13 12 11 10 10 9 8 8 7 7 6 6 6 6 5 5 5 5 5 5 5 5 5 5 5 5 5 5 5
Wind_Speed
5 6 3 2 3 4 3 3 0 4 3 3 6 7 7 7 7 8 8 8 9 9 9 9 9 8 7 7 6 4 3 3 2 3 4 4 5 6 6 7 8 9 9 8
6 4 2 3 3 5 5 4 2 4 4 2 6 7 7 6 7 7 7 8 8 8 8 8 8 7 7 6 5 3 2 2 2 2 3 4 5 4 4 5 5 5 6 6
3 3 3 4 5 6 6 6 3 3 5 6 6 7 7 7 7 7 7 7 7 7 7 7 7 6 6 5 4 3 3 2 3 4 3 3 3 4 4 4 4 3 3 4
2 3 4 6 4 6 5 2 3 5 7 4 6 4 8 7 7 7 6 6 6 6 6 6 6 5 5 4 3 2 2 2 3 3 4 4 4 5 5 4 4 4 3 3
2 4 5 5 4 5 4 2 4 6 7 5 5 5 7 7 6 6 6 5 5 4 4 4 3 3 2 2 1 1 2 2 3 3 3 4 4 4 4 4 4 4 3 3
3 2 3 4 3 2 1 3 5 7 9 7 1 5 4 4 4 6 5 4 4 3 2 1 0 1 1 2 3 3 3 4 4 4 4 4 4 4 4 4 4 4 3 2
1 1 2 3 4 2 4 6 6 5 5 1 2 3 6 6 4 3 3 3 3 2 2 2 3 4 5 6 6 6 7 7 7 7 7 7 6 6 6 6 5 5 5 3
3 1 4 5 5 4 3 6 6 6 5 2 3 1 6 5 4 2 1 2 3 4 4 5 6 7 8 9 9 9 9 10 10 10 10 10 9 9 8 7 7 7 6 5
5 3 3 4 4 4 3 3 5 7 6 6 1 5 6 4 2 1 2 3 4 5 6 7 8 9 10 11 11 11 12 12 12 13 13 13 12 12 12 10 10 9 7 7
5 5 2 0 2 4 4 2 4 5 5 5 2 2 3 3 4 3 3 4 5 6 8 9 10 11 11 12 12 12 13 14 14 14 14 14 14 14 13 13 13 12 11 10
4 4 1 1 4 6 2 2 4 4 5 7 7 2 5 5 5 6 5 5 6 8 10 11 12 12 12 13 14 14 14 15 14 15 15 15 15 15 15 15 15 14 14 13
3 4 2 3 4 3 5 5 4 5 4 5 8 2 6 4 4 5 6 7 8 10 12 13 14 14 14 15 15 15 15 16 16 16 16 16 16 16 17 17 16 16 16 15
2 3 3 5 5 3 3 4 4 3 4 5 7 4 4 3 5 6 8 10 11 12 14 14 14 15 15 16 17 17 17 18 18 18 18 18 18 18 18 18 17 17 16 16
3 2 5 6 5 3 1 2 3 5 6 7 7 10 9 8 8 9 10 12 14 15 15 15 15 16 16 17 18 19 19 19 19 19 20 20 19 19 19 19 18 17 17 17
3 0 1 2 2 2 1 1 2 4 6 8 11 12 11 9 10 11 12 14 16 16 16 17 17 17 18 19 19 19 19 19 19 20 20 20 20 20 19 19 18 18 17 18
1 2 2 2 2 3 4 3 3 4 6 9 11 11 7 9 11 12 14 16 17 17 18 18 19 19 19 19 19 20 20 20 20 20 21 20 20 20 19 19 19 18 17 17
3 3 5 5 2 6 6 4 4 6 8 10 11 12 12 13 14 15 16 15 16 17 19 19 20 19 19 19 19 20 20 19 19 20 20 20 19 19 19 19 19 18 17 16
4 5 5 6 4 6 3 3 2 7 9 9 9 11 12 13 14 15 13 12 15 18 19 19 19 19 19 19 19 19 20 20 19 20 20 19 19 18 18 18 18 17 15 15
5 5 6 6 8 7 3 3 2 7 11 5 7 11 13 13 15 11 7 11 15 17 18 18 18 19 19 19 19 19 20 19 19 19 19 19 18 18 18 18 17 16 14 14
5 6 8 7 9 8 1 4 0 5 5 2 6 11 13 14 14 12 14 16 17 17 17 17 18 19 19 19 19 19 20 19 19 19 19 19 18 18 18 17 17 15 14 14
6 6 9 9 10 5 6 5 3 6 7 5 8 10 11 12 12 15 17 16 16 17 18 18 18 18 18 18 18 19 19 19 19 19 18 18 17 17 17 16 14 13 12 12
6 6 6 6 7 2 8 4 3 5 4 5 7 8 10 12 14 15 16 16 17 17 18 18 17 17 17 17 17 18 19 19 18 18 18 17 17 15 14 14 13 13 12 11
5 5 4 4 3 4 4 3 2 3 5 6 7 8 10 12 14 15 15 16 16 17 17 17 17 18 17 17 17 18 18 18 17 17 17 16 16 14 13 12 12 11 10 9
4 2 5 6 6 5 5 5 5 5 5 5 6 7 9 12 14 15 15 15 16 16 17 16 17 18 18 18 17 17 17 17 17 17 16 15 14 13 12 10 9 8 8 7
6 5 7 9 8 5 7 6 5 5 5 5 5 7 9 11 13 14 14 15 15 16 16 16 16 17 18 18 17 17 16 16 16 16 15 14 12 12 10 9 7 7 6 5
8 9 10 8 5 6 3 3 4 5 5 5 5 7 8 9 12 13 14 14 15 16 16 16 16 17 17 17 17 16 15 16 16 14 13 11 10 10 9 8 7 4 5 5
Wind_Direction
220 241 252 328 304 313 300 285 160 100 108 88 102 99 82 73 76 78 75 76 76 71 66 63 65 68 74 73 68 58 48 27 348 313 298 296 295 288 281 271 272 272 262 252
225 220 332 314 275 253 246 247 187 130 141 157 131 114 96 79 75 73 78 77 79 82 75 70 70 72 73 75 72 65 47 19 343 332 306 295 300 298 294 288 275 281 278 268
276 12 342 278 251 247 248 266 262 178 162 175 174 159 137 111 100 94 88 86 83 79 80 80 78 73 67 59 54 46 29 8 354 337 317 312 294 293 303 311 304 304 300 286
283 342 306 286 278 282 275 302 261 206 218 216 230 241 143 139 129 116 107 100 96 90 88 86 85 77 69 62 59 49 26 3 348 329 341 336 332 328 331 325 328 325 325 300
323 334 314 306 336 311 331 342 239 233 253 259 230 271 132 152 143 130 125 119 114 112 103 96 86 70 57 41 13 359 344 335 330 328 329 323 331 331 331 330 334 327 334 321
319 311 320 333 331 322 238 222 218 230 248 250 273 286 126 123 115 128 132 137 141 140 132 130 152 307 306 301 302 307 303 299 300 301 307 306 313 313 321 319 322 319 320 321
276 125 35 331 288 207 259 272 257 237 241 250 113 268 81 82 87 108 140 163 178 197 219 252 279 291 294 291 294 296 294 290 289 288 287 284 282 282 282 293 305 303 305 302
314 348 29 7 342 320 310 295 307 308 312 313 186 159 89 84 94 108 167 206 225 240 254 271 283 290 294 295 294 292 290 287 286 283 280 278 275 275 282 277 287 288 287 289
334 352 63 32 15 323 300 326 337 291 288 286 156 117 116 112 106 211 237 241 253 268 279 286 293 298 301 302 301 299 297 293 289 285 281 275 271 272 278 276 265 270 266 266
333 313 37 32 214 59 7 335 284 304 317 302 284 168 116 75 6 330 297 289 290 292 296 301 302 305 306 305 304 303 298 295 294 291 286 283 277 272 269 269 271 270 266 259
326 305 14 141 29 13 2 4 337 317 318 313 317 38 70 30 357 335 319 306 305 306 307 309 309 312 312 311 309 307 304 302 299 296 293 290 285 281 275 269 266 264 262 258
344 313 348 92 87 39 36 13 343 323 329 313 307 46 90 28 347 329 320 316 313 311 312 314 316 316 314 313 313 311 309 306 304 301 296 291 287 284 280 276 272 268 264 258
342 302 257 174 164 132 51 40 15 334 302 315 315 4 106 336 321 319 317 317 314 313 314 315 316 317 315 315 313 311 308 307 305 303 299 294 290 286 282 279 276 271 266 262
300 352 351 10 16 0 31 43 11 332 325 324 328 327 331 333 323 318 316 314 314 315 317 317 317 315 316 314 312 310 309 308 306 303 299 295 292 289 286 283 279 274 268 264
266 279 37 33 16 313 317 314 335 343 339 324 326 320 330 340 327 320 315 315 316 318 319 320 318 317 315 313 312 310 309 307 306 302 298 295 293 291 287 284 280 275 270 265
258 270 254 228 217 270 261 249 273 309 319 318 315 321 353 330 315 314 316 318 318 319 320 321 318 317 315 314 312 311 308 307 305 301 298 296 295 292 289 286 281 277 271 266
223 243 274 285 235 269 254 226 263 302 317 316 314 327 331 319 320 319 317 315 318 320 320 319 318 316 315 313 312 310 308 307 304 301 299 298 295 293 292 289 285 280 275 268
237 250 269 290 274 280 58 95 289 299 305 309 307 318 324 319 318 310 306 316 320 319 319 318 317 316 315 314 312 311 310 308 306 303 301 300 297 294 292 288 285 282 278 272
228 240 271 283 286 286 161 178 278 306 305 311 313 319 321 322 311 309 356 335 322 319 318 316 316 316 315 314 316 314 311 309 307 305 304 302 300 297 293 289 285 282 278 272
189 228 259 272 289 295 86 125 116 290 290 63 318 317 321 320 315 329 343 330 323 321 319 318 318 316 316 318 318 314 311 310 308 308 307 305 302 298 294 290 286 282 277 272
215 228 253 270 276 282 110 131 205 295 348 350 319 317 316 318 311 317 322 323 322 320 319 319 319 318 319 319 318 313 311 310 311 310 308 305 303 300 294 289 285 282 277 273
264 261 252 267 272 265 132 168 274 328 339 316 316 316 317 313 312 316 320 321 321 321 322 323 321 320 320 320 318 313 312 314 314 312 308 306 305 302 298 295 290 285 279 272
250 288 291 268 310 97 170 228 287 304 296 309 312 317 316 314 317 320 321 321 322 323 323 323 322 321 321 322 320 315 316 317 316 313 310 309 307 302 300 295 292 289 282 270
219 215 252 256 250 218 217 234 244 254 276 299 306 311 314 315 318 321 321 321 322 323 323 324 324 321 321 322 321 318 317 319 317 313 312 310 309 306 304 298 292 289 287 278
279 218 244 252 256 240 226 230 239 238 252 273 293 307 313 315 317 321 320 322 324 322 324 325 322 320 320 321 321 320 322 322 319 315 312 312 310 308 308 306 297 294 289 285
248 237 244 265 243 236 219 177 205 222 241 266 290 302 311 316 318 320 320 323 322 322 324 323 322 321 320 321 322 325 327 324 320 318 318 317 314 315 317 316 313 282 274 289
Height
1500 1497 1492 1489 1488 1488 1489 1488 1490 1493 1496 1496 1500 1506 1510 1512 1512 1513 1514 1514 1514 1514 1514 1513 1512 1512 1512 1512 1513 1513 1513 1512 1511 1511 1510 1509 1506 1503 1500 1499 1498 1497 1496 1497
1496 1494 1491 1490 1490 1489 1489 1490 1491 1495 1496 1496 1502 1507 1510 1513 1514 1515 1516 1516 1516 1516 1516 1515 1515 1514 1514 1514 1514 1514 1513 1512 1511 1509 1508 1506 1503 1500 1498 1497 1494 1494 1493 1493
1494 1491 1490 1490 1489 1489 1487 1487 1487 1492 1496 1495 1498 1504 1508 1512 1514 1516 1517 1517 1517 1517 1517 1517 1516 1516 1516 1515 1514 1514 1512 1511 1509 1508 1507 1505 1502 1500 1498 1496 1494 1492 1492 1492
1491 1490 1490 1488 1487 1487 1488 1483 1486 1490 1494 1491 1494 1499 1503 1506 1510 1514 1517 1518 1518 1518 1518 1518 1517 1517 1516 1515 1514 1513 1512 1510 1509 1507 1506 1504 1502 1500 1497 1495 1493 1491 1490 1490
1491 1490 1490 1490 1488 1487 1487 1486 1486 1487 1488 1489 1489 1493 1499 1501 1506 1511 1515 1518 1519 1519 1519 1518 1518 1517 1516 1515 1514 1513 1511 1509 1508 1506 1504 1502 1501 1498 1496 1494 1492 1490 1488 1488
1491 1491 1490 1489 1488 1488 1488 1488 1487 1485 1484 1496 1492 1496 1500 1499 1504 1508 1514 1517 1518 1519 1518 1518 1517 1517 1516 1514 1513 1512 1510 1508 1506 1504 1502 1500 1498 1496 1494 1492 1491 1489 1487 1486
1493 1490 1489 1490 1487 1487 1487 1491 1497 1499 1498 1498 1492 1494 1505 1503 1506 1509 1513 1515 1517 1518 1517 1517 1517 1516 1514 1513 1512 1510 1508 1505 1503 1501 1499 1498 1496 1494 1492 1490 1489 1487 1485 1484
1499 1498 1491 1490 1490 1490 1488 1489 1500 1508 1503 1494 1492 1496 1505 1507 1510 1512 1514 1515 1516 1516 1516 1516 1515 1514 1513 1511 1509 1507 1505 1502 1500 1498 1496 1494 1492 1491 1490 1487 1485 1484 1482 1481
1497 1498 1492 1493 1491 1489 1488 1487 1488 1492 1492 1497 1492 1499 1507 1508 1509 1511 1512 1513 1514 1514 1514 1513 1513 1511 1510 1508 1506 1504 1501 1499 1496 1494 1491 1489 1487 1486 1484 1482 1481 1480 1478 1477
1493 1499 1492 1493 1490 1492 1489 1489 1489 1494 1506 1507 1497 1499 1507 1507 1508 1508 1509 1510 1512 1512 1512 1511 1510 1508 1507 1504 1502 1500 1497 1494 1492 1489 1487 1485 1482 1480 1478 1477 1476 1474 1473 1472
1492 1497 1495 1492 1496 1496 1492 1492 1492 1492 1496 1505 1507 1506 1503 1507 1508 1508 1508 1510 1510 1510 1509 1508 1507 1505 1503 1500 1498 1495 1492 1489 1486 1483 1480 1478 1476 1474 1472 1470 1469 1468 1467 1466
1496 1493 1497 1497 1498 1497 1495 1497 1496 1502 1503 1501 1502 1505 1505 1507 1508 1509 1508 1509 1509 1509 1507 1505 1503 1501 1499 1496 1493 1489 1486 1483 1480 1477 1474 1471 1469 1467 1465 1463 1462 1460 1459 1459
1497 1499 1502 1501 1502 1498 1498 1499 1499 1499 1499 1502 1505 1504 1504 1505 1506 1508 1508 1508 1507 1506 1504 1502 1500 1497 1494 1491 1488 1484 1481 1477 1473 1470 1467 1463 1461 1459 1456 1455 1453 1452 1451 1450
1499 1498 1501 1506 1503 1498 1501 1502 1500 1500 1501 1503 1503 1503 1499 1501 1504 1506 1506 1506 1505 1503 1501 1499 1496 1493 1490 1486 1482 1478 1474 1470 1466 1462 1459 1455 1452 1450 1447 1445 1444 1443 1441 1441
1497 1498 1499 1498 1498 1498 1501 1502 1502 1503 1504 1505 1504 1503 1499 1502 1505 1506 1505 1504 1502 1500 1497 1495 1492 1489 1485 1481 1477 1472 1468 1464 1459 1455 1451 1447 1444 1441 1438 1436 1434 1433 1432 1431
1497 1498 1498 1500 1500 1500 1502 1502 1502 1503 1503 1503 1502 1500 1500 1503 1504 1504 1503 1501 1499 1497 1494 1491 1488 1484 1480 1476 1471 1466 1462 1457 1452 1448 1443 1439 1435 1432 1429 1426 1424 1423 1421 1421
1494 1498 1501 1497 1498 1501 1502 1500 1502 1502 1500 1502 1502 1501 1500 1501 1502 1502 1501 1499 1497 1495 1491 1488 1484 1480 1475 1470 1465 1460 1455 1450 1445 1440 1436 1431 1427 1423 1420 1417 1415 1413 1411 1411
1497 1498 1497 1495 1502 1512 1500 1497 1500 1501 1500 1499 1499 1500 1501 1502 1501 1500 1498 1497 1495 1492 1488 1484 1480 1475 1470 1465 1460 1454 1449 1444 1439 1433 1429 1424 1419 1415 1411 1408 1406 1403 1402 1401
1497 1498 1496 1496 1498 1496 1497 1498 1499 1501 1499 1498 1500 1501 1501 1500 1498 1493 1494 1495 1493 1489 1485 1480 1475 1470 1465 1459 1454 1448 1443 1437 1432 1427 1422 1417 1412 1407 1403 1399 1397 1394 1393 1392
1498 1497 1495 1496 1504 1504 1496 1497 1500 1503 1498 1498 1501 1500 1500 1498 1494 1491 1493 1491 1488 1485 1480 1475 1470 1465 1459 1454 1449 1443 1437 1431 1426 1420 1415 1410 1405 1399 1395 1391 1388 1386 1384 1383
1493 1495 1494 1494 1497 1489 1492 1497 1500 1502 1500 1500 1500 1500 1499 1497 1497 1494 1491 1488 1484 1480 1476 1471 1465 1460 1455 1449 1443 1437 1432 1426 1420 1414 1408 1403 1398 1392 1388 1383 1380 1378 1376 1375
1489 1488 1493 1494 1497 1494 1493 1495 1496 1498 1499 1499 1499 1498 1497 1496 1494 1491 1488 1484 1480 1476 1471 1466 1461 1455 1450 1444 1439 1432 1426 1421 1414 1408 1402 1397 1391 1386 1382 1378 1374 1371 1370 1368
1486 1485 1483 1488 1489 1490 1492 1493 1495 1497 1497 1497 1497 1496 1495 1493 1491 1488 1485 1481 1477 1472 1467 1462 1457 1451 1445 1440 1434 1428 1421 1415 1409 1403 1397 1391 1386 1381 1376 1372 1368 1366 1364 1362
1483 1489 1487 1488 1484 1488 1491 1492 1494 1495 1495 1495 1495 1494 1493 1491 1488 1485 1481 1477 1473 1468 1464 1458 1453 1447 1441 1436 1430 1424 1417 1411 1404 1398 1391 1386 1381 1376 1371 1367 1364 1361 1359 1358
1481 1485 1484 1485 1484 1486 1488 1490 1491 1492 1492 1492 1492 1491 1490 1488 1485 1482 1478 1474 1470 1465 1460 1455 1449 1443 1437 1431 1425 1419 1413 1406 1400 1394 1388 1382 1377 1372 1368 1364 1361 1358 1356 1355
1478 1480 1482 1479 1479 1482 1484 1487 1488 1489 1489 1490 1489 1488 1487 1485 1482 1479 1475 1471 1467 1462 1456 1451 1445 1440 1433 1428 1422 1416 1409 1403 1397 1390 1384 1379 1374 1370 1366 1362 1359 1356 1354 1353